Lakehurst NAS, NJ

4:03 AM EDT on March 25, 2017 (GMT -0400)
Lakehurst Naes

Weather History for KNEL - May, 2013

Change the Weather History Date:

Wednesday, May 15, 2013

  Actual Average Record
Temperature  
Mean Temperature 65 °F -  
Max Temperature 66 °F 67 °F 84 °F (1998)
Min Temperature 46 °F 49 °F 37 °F (2000)
Growing Degree Days 15 (Base 50)    
Moisture  
Dew Point 49 °F    
Average Humidity 48    
Maximum Humidity 73    
Minimum Humidity 34    
Precipitation  
Precipitation 0.00 in - - ()
Sea Level Pressure  
Sea Level Pressure 29.90 in    
Wind  
Wind Speed 5 mph (South)    
Max Wind Speed 17 mph    
Max Gust Speed 24 mph    
Averages and records for this station are not official NWS values.
T = Trace of Precipitation, MM = Missing Value Source: NWS Daily Summary

Daily Weather History Graph

Daily Weather History Graph

Search for Another Location

Airport or City:

Trip Planner

Search our weather history database for the weather conditions in past years. The results will help you decide how hot, cold, wet, or windy it might be!

Date:

Astronomy

May. 15, 2013 Rise Set
Actual Time 5:41 AM EDT 8:06 PM EDT
Civil Twilight 5:11 AM EDT 8:36 PM EDT
Nautical Twilight 4:33 AM EDT 9:15 PM EDT
Astronomical Twilight 3:51 AM EDT 9:57 PM EDT
Moon 10:15 AM EDT (5/15) No Moon Set
Length of Visible Light 15h 25m
Length of Day
14h 24m
Waxing Crescent, 26% of the Moon is Illuminated
May 15
Waxing Crescent
May 18
First Quarter
May 25
Full
May 31
Last Quarter
Jun 8
New

Hourly Weather History & Observations

Time (EDT) Temp. Heat Index Dew Point Humidity Pressure Visibility Wind Dir Wind Speed Gust Speed Precip Events Conditions
12:00 AM 46.0 °F - 30.9 °F 56% 30.09 in - Calm Calm - N/A   Clear
1:00 AM 46.0 °F - 35.1 °F 66% 30.09 in - Calm Calm - N/A   Partly Cloudy
2:00 AM 53.1 °F - 39.9 °F 61% 30.07 in - Calm Calm - N/A   Partly Cloudy
3:00 AM 63.0 °F - 42.1 °F 46% 30.06 in - SSW 3.5 mph - N/A   Overcast
4:00 AM 57.9 °F - 43.0 °F 58% 30.05 in - Calm Calm - N/A   Overcast
5:00 AM 61.0 °F - 45.0 °F 56% 30.04 in - South 3.5 mph - N/A   Overcast
6:00 AM 61.0 °F - 45.0 °F 56% 30.04 in - SSE 3.5 mph - N/A   Overcast
7:00 AM 64.0 °F - 46.9 °F 54% 30.03 in - SSE 4.6 mph - N/A   Overcast
8:00 AM 66.0 °F - 46.9 °F 50% 30.00 in - SE 6.9 mph - N/A   Overcast
9:00 AM 70.0 °F - 42.1 °F 36% 29.98 in - SSE 17.3 mph 21.9 mph N/A   Overcast
10:00 AM 73.9 °F - 46.0 °F 37% 29.94 in - South 15.0 mph 24.2 mph N/A   Clear
11:00 AM 75.9 °F - 48.9 °F 38% 29.93 in - South 12.7 mph 19.6 mph N/A   Partly Cloudy
12:00 PM 80.1 °F - 48.9 °F 34% 29.90 in - South 8.1 mph - N/A   Mostly Cloudy
1:00 PM 80.1 °F - 51.1 °F 36% 29.85 in - South 11.5 mph 20.7 mph N/A   Partly Cloudy
2:00 PM 82.0 °F - 51.1 °F 34% 29.87 in - WSW 5.8 mph - N/A   Scattered Clouds
3:00 PM 82.0 °F 81.3 °F 54.0 °F 38% 29.83 in - South 8.1 mph - N/A   Partly Cloudy
4:00 PM 82.0 °F 81.4 °F 55.0 °F 39% 29.74 in - South 15.0 mph 20.7 mph N/A   Clear
5:00 PM 82.9 °F 82.0 °F 55.0 °F 38% 29.73 in - SSW 10.4 mph 20.7 mph N/A   Clear
6:00 PM 82.9 °F 82.1 °F 55.9 °F 39% 29.70 in - SSW 15.0 mph - N/A   Clear
7:00 PM 84.0 °F 83.3 °F 57.0 °F 40% 29.71 in - WSW 9.2 mph - N/A   Clear
8:00 PM 80.1 °F 80.6 °F 57.9 °F 47% 29.71 in - Calm Calm - N/A   Clear
9:00 PM 73.0 °F - 57.9 °F 59% 29.71 in - South 5.8 mph - N/A   Scattered Clouds
10:00 PM 73.0 °F - 57.9 °F 59% 29.72 in - South 3.5 mph - N/A   Clear
11:00 PM 66.0 °F - 57.0 °F 73% 29.71 in - Calm Calm - N/A   Clear